Find Starlink 3937

NORAD ID: 52542 Int'l Des: 2022-051 Owner: SPXS Country: US Constellation: starlink operational
LEOCIRCULAR

リアルタイム位置

3D地球を読み込み中...

Starlink 3937について

説明を読み込み中...

次回通過

Passes for default location (London). Set your location on the main map for personalized predictions.

高度履歴

Loading altitude history...

軌道要素

1 52542U 22051K 26127.70055183 -.00000312 00000-0 -15481-5 0 9997
2 52542 53.2163 224.2094 0001130 87.2157 272.8964 15.08839759220353
Epoch: May 7, 2026 • Age: 8 hours

現在のステータス

高度 545.9 km
速度 7.59 km/s
衛星直下点 -20.97°S, 29.36°W
打ち上げ日 May 13, 2022
運用期間 3.9 years
タイプ internet

技術仕様

分類 Payload
質量 297.00 kg
乾燥質量 275.00 kg
総質量 297.00 kg
長さ 0.20 m
直径 2.80 m
スパン 9.00 m
形状 Box + pan
製造者 SPXS
バスタイプ Starlink
フェーズステータス In Orbit
所有者/国 SPXS/US

Most Searched